EHI
0 0 0 0 0 0 0 0 0 0 0 0 0 0 0 0 0 0 0 0 0 0 0 0 0 0 0 0 0 0 0 0 0 0 0 0 0 0
0 0 0 0 0 0 0 0 0 0 0 0 0 0 0 0 0 0 0 0 0 0 0 0 0 0 0 0 0 0 0 0 0 0 0 0 0 0
0 0 0 0 0 0 0 0 0 0 0 0 0 0 0 0 0 0 0 0 0 0 0 0 0 0 0 0 0 0 0 0 0 0 0 0 0 0
0 0 0 0 0 0 0 0 0 0 0 0 0 0 0 0 0 0 0 0 0 0 0 0 0 0 0 0 0 0 0 0 0 0 0 0 0 0
0 0 0 0 0 0 0 0 0 0 0 0 0 0 0 0 0 0 0 0 0 0 0 0 0 0 0 0 0 0 0 0 0 0 0 0 0 0
0 0 0 0 0 0 0 0 0 0 0 0 0 0 0 0 0 0 0 0 0 0 0 0 0 0 0 0 0 0 0 0 0 0 0 0 0 0
0 0 0 0 0 0 0 0 0 0 0 0 0 0 0 0 0 0 0 0 0 0 0 0 0 0 0 0 0 0 0 0 0 0 0 0 0 0
0 0 0 0 0 0 0 0 0 0 0 0 0 0 0 0 0 0 0 0 0 0 0 0 0 0 0 0 0 0 0 0 0 0 0 0 0 0
0 0 0 0 0 0 0 0 0 0 0 0 0 0 0 0 0 0 0 0 0 0 0 0 0 0 0 0 0 0 0 0 0 0 0 0 0 0
0 0 0 0 0 0 0 0 0 0 0 0 0 0 0 0 0 0 0 0 0 0 0 0 0 0 0 0 0 0 0 0 0 0 0 0 0 0
0 0 0 0 0 0 0 0 0 0 0 0 0 0 0 0 0 0 0 0 0 0 0 0 0 0 0 0 0 0 0 0 0 0 0 0 0 0
0 0 0 0 0 0 0 0 0 0 0 0 0 0 0 0 0 0 0 0 0 0 0 0 0 0 0 0 0 0 0 0 0 0 0 0 0 0
0 0 0 0 0 0 0 0 0 0 0 0 0 0 0 0 0 0 0 0 0 0 0 0 0 0 0 0 0 0 0 0 0 0 0 0 0 0
0 0 0 0 0 0 0 0 0 0 0 0 0 0 0 0 0 0 0 0 0 0 0 0 0 0 0 0 0 0 0 0 0 0 0 0 0 0
0 0 0 0 0 0 0 0 0 0 0 0 0 0 0 0 0 0 0 0 0 0 0 0 0 0 0 0 0 0 0 0 0 0 0 0 0 0
0 0 0 0 0 0 0 0 0 0 0 0 0 0 0 0 0 0 0 0 0 0 0 0 0 0 0 0 0 0 0 0 0 0 0 0 0 0
0 0 0 0 0 0 0 0 0 0 0 0 0 0 0 0 0 0 0 0 0 0 0 0 0 0 0 0 0 0 0 0 0 0 0 0 0 0
0 0 0 0 0 0 0 0 0 0 0 0 0 0 0 0 0 0 0 0 0 0 0 0 0 0 0 0 0 0 0 0 0 0 0 0 0 0
0 0 0 0 0 0 0 0 0 0 0 0 0 0 0 0 0 0 0 0 0 0 0 0 0 0 0 0 0 0 0 0 0 0 0 0 0 0
0 0 0 0 0 0 0 0 0 0 0 0 0 0 0 0 0 0 0 0 0 0 0 0 0 0 0 0 0 0 0 0 0 0 0 0 0 0
0 0 0 0 0 0 0 0 0 0 0 0 0 0 0 0 0 0 0 0 0 0 0 0 0 0 0 0 0 0 0 0 0 0 0 0 0 0
0 0 0 0 0 0 0 0 0 0 0 0 0 0 0 0 0 0 0 0 0 0 0 0 0 0 0 0 0 0 0 0 0 0 0 0 0 0
0 0 0 0 0 0 0 0 0 0 0 0 0 0 0 0 0 0 0 0 0 0 0 0 0 0 0 0 0 0 0 0 0 0 0 0 0 0
Wind_Speed
4 4 3 3 3 3 2 1 2 3 2 1 1 3 3 2 4 2 2 6 7 8 8 7 4 4 5 6 6 5 5 4 5 6 8 9 11 11
5 6 6 4 4 4 4 3 2 1 1 1 2 3 3 3 5 4 3 4 4 4 3 1 2 4 3 3 4 4 5 6 7 9 10 11 10 10
7 7 7 6 5 5 4 4 4 2 1 1 2 2 3 3 4 4 5 4 4 6 6 6 5 3 1 1 2 3 5 7 8 8 9 9 10 11
8 8 7 6 7 5 5 5 4 3 2 1 2 2 3 3 3 4 4 4 4 8 7 6 4 3 1 2 3 5 6 6 7 8 9 10 11 12
7 7 7 6 7 5 5 5 4 4 3 2 2 2 2 2 3 3 4 4 4 5 6 6 6 4 3 4 5 5 6 7 8 9 10 11 11 12
7 7 6 6 4 4 4 4 4 4 4 3 2 2 2 2 2 2 3 3 3 4 5 5 6 6 6 5 5 6 6 8 9 10 11 12 12 13
7 7 7 9 10 6 5 4 4 3 3 3 3 2 3 3 2 2 2 2 2 3 2 2 2 2 3 5 7 8 9 10 11 12 13 13 13 13
5 5 6 8 10 12 12 11 8 4 3 2 2 2 2 2 2 2 1 2 2 2 2 3 2 3 3 3 7 10 10 11 12 12 12 12 13 13
4 4 4 5 6 4 8 10 10 11 8 2 1 1 1 1 1 1 1 0 2 2 2 3 2 3 3 4 8 10 10 11 11 11 11 12 12 13
3 3 3 4 3 3 3 4 4 5 5 2 1 1 2 2 2 2 1 1 2 2 1 2 3 3 3 3 8 9 9 9 9 9 9 10 12 13
3 3 3 3 7 6 3 3 4 4 5 6 4 4 5 4 1 1 0 1 2 2 0 1 2 3 3 3 4 6 5 5 6 8 10 11 12 12
2 3 6 6 8 7 2 1 3 3 2 3 4 5 4 5 4 1 2 2 1 3 2 1 2 3 4 3 2 3 4 7 10 10 11 12 14 7
1 2 3 8 9 8 5 1 4 2 0 2 2 3 2 2 2 2 1 3 3 4 2 1 1 1 2 4 4 3 3 3 3 6 11 14 15 11
1 2 4 8 8 8 5 5 6 4 1 1 2 2 2 2 2 2 2 2 4 5 4 3 3 3 2 4 5 3 3 4 4 6 5 10 11 13
2 5 6 7 6 5 6 6 4 2 1 1 2 2 2 2 2 3 3 3 4 5 5 5 5 4 5 6 6 5 4 4 5 5 4 4 4 4
2 4 6 6 4 4 4 3 2 2 2 2 2 2 2 2 2 2 2 3 3 4 4 5 5 6 6 7 8 9 6 6 3 3 5 6 7 7
3 1 1 1 2 2 2 2 2 2 2 2 2 3 3 3 3 2 3 2 3 4 4 3 4 5 8 7 8 10 9 9 8 7 6 8 8 7
2 1 2 2 3 3 3 3 2 2 2 2 3 3 4 4 4 4 4 4 6 6 6 4 3 3 4 7 13 11 9 9 7 6 6 8 10 8
2 2 3 3 4 4 3 3 3 3 3 3 4 4 4 4 4 5 5 5 6 7 6 4 4 4 6 7 7 11 8 6 6 7 7 8 11 9
3 4 4 4 4 4 4 4 4 4 3 4 4 4 4 4 5 5 5 6 7 7 7 6 5 6 8 8 7 6 11 10 8 10 9 8 10 14
4 4 5 5 5 5 4 4 4 4 5 4 4 5 5 5 6 6 6 11 10 8 9 8 7 10 7 6 9 9 7 13 14 10 8 8 11 11
5 5 5 5 5 5 5 4 4 5 5 5 5 5 5 5 7 8 7 8 8 8 10 9 7 5 6 8 12 13 13 9 12 21 23 19 10 7
6 5 5 5 5 5 5 5 6 6 6 6 6 6 5 6 7 8 8 9 9 9 10 10 7 6 8 10 11 12 15 13 10 10 11 17 24 28
Wind_Direction
17 18 24 19 15 2 344 294 264 272 271 322 8 8 350 341 334 337 331 283 263 256 255 255 238 201 175 180 191 205 221 237 249 256 262 267 271 274
34 42 39 24 26 20 14 11 5 276 262 41 28 3 347 352 13 21 3 337 323 309 287 248 143 141 144 179 210 230 246 255 260 265 269 270 270 272
43 47 44 36 36 25 23 26 23 10 306 59 46 10 3 11 18 24 32 29 23 33 52 67 73 81 109 181 237 250 260 265 268 269 270 273 276 277
49 50 45 43 43 32 31 31 25 16 18 41 34 17 17 17 29 29 33 38 34 37 40 40 37 32 13 272 261 263 264 263 265 270 273 275 277 277
52 52 46 48 47 37 34 29 21 22 26 63 44 25 19 22 35 37 38 29 29 27 28 27 19 6 337 305 289 279 271 266 267 269 272 273 275 276
48 46 43 45 53 49 41 29 27 31 33 49 44 28 24 16 37 34 30 25 17 13 14 12 10 7 351 331 312 298 286 277 272 270 268 268 270 271
44 37 39 44 49 53 52 38 37 37 34 38 33 25 20 17 22 12 24 7 9 9 352 352 349 334 325 311 298 285 276 270 266 266 266 267 268 269
44 29 31 37 40 41 43 41 42 47 41 41 29 28 7 1 4 17 22 18 339 350 351 308 309 289 283 268 276 274 268 265 263 263 264 267 268 269
47 32 26 24 40 37 35 35 30 33 43 80 59 9 325 308 6 13 12 334 269 295 347 302 319 295 287 290 297 286 274 266 263 265 266 267 270 272
38 29 20 359 0 57 48 29 17 11 20 47 121 264 256 248 206 191 208 274 284 279 197 283 313 294 294 296 301 288 270 263 263 266 270 273 275 276
13 11 10 346 348 27 57 22 2 346 360 12 8 349 338 328 271 138 108 13 318 304 325 264 307 307 299 299 309 324 328 314 298 290 284 280 278 279
359 356 357 349 346 2 82 26 331 310 325 344 355 354 354 346 1 128 168 166 229 289 289 258 305 337 321 300 294 302 312 304 300 296 292 289 286 284
337 335 324 336 341 343 358 285 291 317 14 336 329 331 341 351 4 15 153 169 188 240 256 163 249 257 261 296 297 268 261 273 287 285 290 289 285 277
280 282 295 324 338 344 345 322 342 32 21 333 325 321 321 319 322 324 300 250 224 235 244 212 229 217 251 277 280 284 265 253 257 269 267 282 283 278
253 291 317 334 348 346 330 341 9 16 324 306 299 287 273 272 289 300 296 280 269 257 247 229 228 238 242 258 272 278 293 272 243 254 262 258 256 260
294 300 320 333 340 330 335 350 346 294 281 267 274 276 282 283 281 280 288 301 299 290 268 242 232 232 249 254 264 274 267 270 270 241 257 267 262 250
253 210 285 308 313 309 301 294 292 305 312 288 280 287 288 289 286 278 268 273 268 280 288 273 244 234 239 249 261 261 265 265 264 269 269 274 269 255
273 201 251 261 268 275 282 286 282 275 269 266 272 274 280 283 284 277 267 266 271 274 275 274 275 281 265 253 236 252 257 261 264 260 254 267 275 262
244 230 244 251 255 257 257 256 258 260 257 258 262 265 268 272 274 275 272 270 271 272 271 263 249 248 269 278 264 229 236 254 260 262 254 253 267 273
219 233 242 246 246 248 250 251 255 261 256 254 256 256 257 262 267 268 267 266 271 275 274 257 236 231 242 261 269 260 242 248 257 264 266 263 264 271
233 236 238 240 242 243 244 245 246 251 252 251 253 252 250 253 260 261 264 271 273 271 272 268 249 257 257 256 264 265 251 245 247 250 257 267 275 274
235 238 239 238 238 239 241 242 246 248 251 249 250 250 247 246 255 259 260 264 264 263 266 271 267 258 246 252 263 273 279 270 260 262 260 254 255 259
234 235 237 237 237 236 236 239 242 247 246 246 249 249 245 248 252 255 258 259 263 266 269 275 271 256 255 256 264 270 276 279 277 271 261 255 256 258